Regional Weather Roundup
Issued by NWS

Home | Current Version | Previous Version | Text Only | Print | Product List | Glossary Off
Versions: 1 2 3 4 5 6 7 8 9 10 11 12 13 14 15 16 17 18 19 20 21 22 23 24 25 26 27 28 29 30 31 32 33 34 35 36 37 38 39 40 41 42 43 44 45 46 47 48 49 50

000
ASUS45 KPSR 291800
RWRAZ

ARIZONA HOURLY REGIONAL WEATHER ROUNDUP
NATIONAL WEATHER SERVICE PHOENIX AZ
1100 AM MST FRI MAY 29 2015

NOTE: FAIR INDICATES FEW OR NO CLOUDS BELOW 12,000 FEET WITH NO
SIGNIFICANT WEATHER AND/OR OBSTRUCTIONS TO VISIBILITY.

AZZ001>003-036-291900-
NORTHWEST ARIZONA

CITY           SKY/WX    TMP DP  RH WIND       PRES   REMARKS
KINGMAN        SUNNY     88  21   8 VRB5      30.05F
6HR MIN TEMP:  60; 6HR MAX TEMP:  90;

$$

AZZ004>008-015-016-018-291900-
NORTH CENTRAL ARIZONA

CITY           SKY/WX    TMP DP  RH WIND       PRES   REMARKS
GRAND CANYON   PTSUNNY   69  34  27 CALM      30.27F
6HR MIN TEMP:  40; 6HR MAX TEMP:  72;

WILLIAMS       MOSUNNY   70  32  24 VRB3      30.34S
PRESCOTT       SUNNY     79  24  13 VRB5      30.18S
6HR MIN TEMP:  51; 6HR MAX TEMP:  80;

FLAGSTAFF      NOT AVBL
PAYSON         SUNNY     82  32  16 VRB3      30.18S
PAGE           SUNNY     79  38  22 E9        30.15S
6HR MIN TEMP:  66; 6HR MAX TEMP:  79;

$$

AZZ009>014-017-291900-
NORTHEAST ARIZONA

CITY           SKY/WX    TMP DP  RH WIND       PRES   REMARKS
WINSLOW        NOT AVBL
SAINT JOHNS    MOSUNNY   74  26  16 VRB3      30.19F
6HR MIN TEMP:  47; 6HR MAX TEMP:  74;

WINDOW ROCK    PTSUNNY   72  30  21 CALM      30.25F
6HR MIN TEMP:  38; 6HR MAX TEMP:  74;

$$

AZZ023-291900-
GREATER PHOENIX AREA

CITY           SKY/WX    TMP DP  RH WIND       PRES   REMARKS
PHOENIX        MOSUNNY   93  32  11 W5        29.93S
6HR MIN TEMP:  73; 6HR MAX TEMP:  93;

GLENDALE       MOSUNNY   91  34  13 VRB5      29.95S
LUKE AFB       SUNNY     90  34  13 S3        29.92F
6HR MIN TEMP:  65; 6HR MAX TEMP:  90;

DEER VALLEY    SUNNY     89  31  12 VRB7      29.95S
6HR MIN TEMP:  66; 6HR MAX TEMP:  89;

SCOTTSDALE     SUNNY     89  29  11 CALM      29.97S
6HR MIN TEMP:  70; 6HR MAX TEMP:  89;

MESA-FALCON    MOSUNNY   88  30  12 S6        29.95S
MESA-GATEWAY   MOSUNNY   88  36  15 W7        29.97S
CHANDLER       MOSUNNY   91  36  14 VRB5      29.95S
$$

AZZ027-028-291900-
SOUTHWEST MARICOPA COUNTY AND PINAL COUNTY

CITY           SKY/WX    TMP DP  RH WIND       PRES   REMARKS
CASA GRANDE    SUNNY     91  36  14 CALM      29.95F
6HR MIN TEMP:  63; 6HR MAX TEMP:  91;

GILA BEND      SUNNY     94  36  13 NW6       29.91F
6HR MIN TEMP:  67; 6HR MAX TEMP:  94;

$$

AZZ503-504-507>509-291900-
SOUTHEAST ARIZONA

CITY           SKY/WX    TMP DP  RH WIND       PRES   REMARKS
TUCSON         SUNNY     91  31  11 NW5       30.02F
6HR MIN TEMP:  65; 6HR MAX TEMP:  91;

DAVIS-MONTHAN  SUNNY     89  34  14 SW5       30.00F
6HR MIN TEMP:  65; 6HR MAX TEMP:  89;

RYAN FIELD       N/A     90  36  14 NE3       30.01F
NOGALES        SUNNY     90  34  13 S13       30.08S
6HR MIN TEMP:  54; 6HR MAX TEMP:  90;

SIERRA VISTA   SUNNY     83  37  19 VRB3      30.14F
6HR MIN TEMP:  61; 6HR MAX TEMP:  84;

SAFFORD        SUNNY     88  26  10 CALM      30.02F
6HR MIN TEMP:  56; 6HR MAX TEMP:  89;

$$

AZZ020-021-025-026-031-291900-
SOUTHWEST ARIZONA

CITY           SKY/WX    TMP DP  RH WIND       PRES   REMARKS
YUMA           NOT AVBL
$$

CAZ031-033-041-043-047-048-061-291900-
SOUTHERN CALIFORNIA

CITY           SKY/WX    TMP DP  RH WIND       PRES   REMARKS
DOWNTOWN L.A.  SUNNY     71  57  61 CALM      29.95F HAZE
6HR MIN TEMP:  60; 6HR MAX TEMP:  71;

L.A. AIRPORT   MOSUNNY   67  57  70 CALM      29.96S HAZE
6HR MIN TEMP:  59; 6HR MAX TEMP:  67;

SAN DIEGO      MOSUNNY   68  56  65 NW5       29.97S
6HR MIN TEMP:  61; 6HR MAX TEMP:  68;

BURBANK        SUNNY     70  55  59 S5        29.95F
6HR MIN TEMP:  57; 6HR MAX TEMP:  70;

ONTARIO        MOSUNNY   71  56  58 VRB3      29.96S HAZE
6HR MIN TEMP:  57; 6HR MAX TEMP:  71;

RIVERSIDE      SUNNY     72  57  59 VRB3      29.95F HAZE
6HR MIN TEMP:  56; 6HR MAX TEMP:  72;

PALM SPRINGS   SUNNY     89  47  23 E10       29.91S
6HR MIN TEMP:  72; 6HR MAX TEMP:  90;

EL CENTRO NAS  MOSUNNY   89  51  27 VRB3      29.89S
6HR MIN TEMP:  63; 6HR MAX TEMP:  89;

IMPERIAL       SUNNY     88  52  29 VRB3      29.87S
6HR MIN TEMP:  69; 6HR MAX TEMP:  88;

BLYTHE         SUNNY     93  35  13 S9        29.90S
6HR MIN TEMP:  65; 6HR MAX TEMP:  93;

$$

NVZ020-UTZ003-291900-
SOUTHERN NEVADA-UTAH

CITY           SKY/WX    TMP DP  RH WIND       PRES   REMARKS
LAS VEGAS      NOT AVBL
SALT LAKE CITY MOSUNNY   69  42  37 CALM      30.19F
6HR MIN TEMP:  51; 6HR MAX TEMP:  70;

$$

NMZ009-TXZ055-291900-
NEW MEXICO-WEST TEXAS

CITY           SKY/WX    TMP DP  RH WIND       PRES   REMARKS
ALBUQUERQUE    PTSUNNY   76  35  22 N8        30.17F
6HR MIN TEMP:  60; 6HR MAX TEMP:  76;

EL PASO        MOSUNNY   89  22   8 CALM      30.04S
6HR MIN TEMP:  63; 6HR MAX TEMP:  89;

$$


........................KEY........................
SKY/WX - SKY CONDITION/WEATHER
TMP    - TEMPERATURE IN FAHRENHEIT
DP     - DEW POINT IN FAHRENHEIT
RH     - RELATIVE HUMIDITY IN PERCENT
WIND   - DIRECTION AND SPEED IN MILES PER HOUR (MPH)
VRB    - VARIABLE WIND DIRECTION
PRES   - MEAN SEA LEVEL PRESSURE IN INCHES OF MERCURY
         F - FALLING PRESSURE   R - RISING PRESSURE
         S - STEADY PRESSURE
VSB    - VISIBILITY IN MILES
HX     - HEAT INDEX IN FAHRENHEIT
WCI    - WIND CHILL INDEX IN FAHRENHEIT
TC     - TEMPERATURE IN CELSIUS WHICH IS ALSO KNOWN AS
         TEMPERATURE IN CENTIGRADE
AFB    - AIR FORCE BASE
         LUKE AFB IS LUKE AIR FORCE BASE
         DAVIS-MONTHAN IS DAVIS-MONTHAN AIR FORCE BASE
NAS    - NAVAL AIR STATION
         EL CENTRO NAS IS EL CENTRO NAVAL AIR STATION
N/A    - NOT AVAILABLE



USA.gov is the U.S. government's official web portal to all federal, state and local government web resources and services.